When you browse on this site, cookies collect data to enhance your experience and personalize the content and advertising you see.
Visit our Privacy Policy to learn more. By continuing to use the site, you agree to this use of cookies and data.
  • In Hungary
  • List of Countries
  • For 7 days
  • Water Temperature
  • Satellite Maps
  • Weather Map
  • News
  • Weather Widgets
  • user-avatar
    Login

    Hourly Weather Perevissya

    Today, 10 December, Monday

    Time Temperature Precipitation Wind Pressure Humidity
    00:00 0°C° 0.1 mm 4 mps 731 mmHg 90%
    01:00 0°C° 0.1 mm 4 mps 731 mmHg 90%
    02:00 +1°C° 0 mm 3 mps 731 mmHg 92%
    03:00 0°C° 0.1 mm 4 mps 731 mmHg 92%
    04:00 0°C° 0.1 mm 4 mps 731 mmHg 92%
    05:00 0°C° 0.1 mm 4 mps 731 mmHg 92%
    06:00 0°C° 0.1 mm 4 mps 731 mmHg 92%
    07:00 0°C° 0.1 mm 4 mps 732 mmHg 92%
    08:00 0°C° 0 mm 4 mps 732 mmHg 93%
    09:00 0°C° 0 mm 4 mps 732 mmHg 91%
    10:00 +1°C° 0 mm 4 mps 732 mmHg 89%
    11:00 +3°C° 0 mm 4 mps 733 mmHg 87%
    12:00 +3°C° 0.1 mm 4 mps 733 mmHg 86%
    13:00 +3°C° 0.1 mm 4 mps 733 mmHg 85%
    14:00 +2°C° 0 mm 5 mps 733 mmHg 82%
    15:00 +1°C° 0.1 mm 5 mps 734 mmHg 82%
    16:00 +1°C° 0.1 mm 5 mps 734 mmHg 82%
    17:00 +1°C° 0.1 mm 5 mps 735 mmHg 82%
    18:00 0°C° 0 mm 5 mps 735 mmHg 82%
    19:00 0°C° 0 mm 4 mps 736 mmHg 83%
    20:00 0°C° 0 mm 4 mps 736 mmHg 84%
    21:00 0°C° 0 mm 4 mps 736 mmHg 85%
    22:00 -1°C° 0 mm 4 mps 736 mmHg 87%
    23:00 0°C° 0 mm 3 mps 737 mmHg 88%

    Tomorrow, 11 December, Tuesday

    Time Temperature Precipitation Wind Pressure Humidity
    00:00 0°C° 0 mm 3 mps 737 mmHg 90%
    01:00 -1°C° 0 mm 3 mps 737 mmHg 91%
    02:00 -1°C° 0 mm 3 mps 737 mmHg 93%
    03:00 -1°C° 0 mm 3 mps 738 mmHg 93%
    04:00 -2°C° 0 mm 3 mps 738 mmHg 94%
    05:00 -2°C° 0 mm 3 mps 738 mmHg 95%
    06:00 -2°C° 0 mm 3 mps 738 mmHg 95%
    07:00 -2°C° 0 mm 2 mps 739 mmHg 95%
    08:00 -2°C° 0 mm 2 mps 739 mmHg 95%
    09:00 -1°C° 0 mm 2 mps 739 mmHg 92%
    10:00 -1°C° 0 mm 2 mps 740 mmHg 89%
    11:00 +1°C° 0 mm 2 mps 740 mmHg 86%
    12:00 +1°C° 0 mm 2 mps 740 mmHg 84%
    13:00 +2°C° 0 mm 2 mps 740 mmHg 81%
    14:00 +2°C° 0 mm 2 mps 740 mmHg 79%
    15:00 +2°C° 0 mm 1 mps 741 mmHg 83%
    16:00 +1°C° 0 mm 1 mps 741 mmHg 86%
    17:00 +1°C° 0 mm 1 mps 741 mmHg 89%
    18:00 0°C° 0 mm 1 mps 741 mmHg 89%
    19:00 0°C° 0 mm 1 mps 741 mmHg 89%
    20:00 0°C° 0 mm 1 mps 742 mmHg 90%
    21:00 0°C° 0 mm 1 mps 742 mmHg 89%
    22:00 0°C° 0 mm 1 mps 742 mmHg 89%
    23:00 0°C° 0 mm 1 mps 742 mmHg 88%

    Day after tomorrow, 12 December, Wednesday

    Time Temperature Precipitation Wind Pressure Humidity
    00:00 0°C° 0 mm 1 mps 742 mmHg 88%
    01:00 0°C° 0 mm 1 mps 743 mmHg 88%
    02:00 0°C° 0 mm 1 mps 743 mmHg 88%
    03:00 0°C° 0 mm 1 mps 743 mmHg 89%
    04:00 0°C° 0 mm 1 mps 743 mmHg 89%
    05:00 0°C° 0 mm 1 mps 743 mmHg 90%
    06:00 0°C° 0 mm 1 mps 743 mmHg 91%
    07:00 -1°C° 0 mm 1 mps 744 mmHg 92%
    08:00 -3°C° 0 mm 2 mps 744 mmHg 92%
    09:00 -2°C° 0 mm 2 mps 744 mmHg 90%
    10:00 -2°C° 0 mm 2 mps 744 mmHg 87%
    11:00 -1°C° 0 mm 2 mps 745 mmHg 84%
    12:00 -1°C° 0 mm 3 mps 744 mmHg 83%
    13:00 -1°C° 0 mm 3 mps 744 mmHg 82%
    14:00 -1°C° 0 mm 4 mps 744 mmHg 81%
    15:00 -2°C° 0.1 mm 4 mps 744 mmHg 84%
    16:00 -2°C° 0.1 mm 4 mps 744 mmHg 87%
    17:00 -2°C° 0.1 mm 4 mps 744 mmHg 90%
    18:00 -2°C° 0.2 mm 4 mps 744 mmHg 90%
    19:00 -2°C° 0.2 mm 4 mps 744 mmHg 90%
    20:00 -2°C° 0.2 mm 5 mps 744 mmHg 90%
    21:00 -2°C° 0.4 mm 5 mps 744 mmHg 90%
    22:00 -2°C° 0.4 mm 5 mps 744 mmHg 90%
    23:00 -2°C° 0.4 mm 5 mps 744 mmHg 90%

    13 December, Thursday

    Time Temperature Precipitation Wind Pressure Humidity
    00:00 -2°C° 0.6 mm 5 mps 744 mmHg 90%
    01:00 -2°C° 0.6 mm 5 mps 743 mmHg 91%
    02:00 -2°C° 0.6 mm 5 mps 743 mmHg 91%
    03:00 -2°C° 0.6 mm 5 mps 743 mmHg 91%
    04:00 -2°C° 0.6 mm 5 mps 743 mmHg 92%
    05:00 -2°C° 0.6 mm 5 mps 743 mmHg 92%
    06:00 -2°C° 0.4 mm 5 mps 743 mmHg 92%
    07:00 -2°C° 0.4 mm 5 mps 743 mmHg 92%
    08:00 -2°C° 0.4 mm 5 mps 743 mmHg 92%
    09:00 -2°C° 0.4 mm 5 mps 743 mmHg 92%
    10:00 -2°C° 0.4 mm 5 mps 743 mmHg 92%
    11:00 -2°C° 0.4 mm 5 mps 743 mmHg 91%
    12:00 -2°C° 0.2 mm 5 mps 743 mmHg 91%
    13:00 -2°C° 0.2 mm 5 mps 743 mmHg 91%
    14:00 -2°C° 0.2 mm 4 mps 743 mmHg 91%
    15:00 -2°C° 0.2 mm 4 mps 744 mmHg 91%
    16:00 -2°C° 0.2 mm 4 mps 744 mmHg 92%
    17:00 -2°C° 0.2 mm 4 mps 744 mmHg 92%
    18:00 -3°C° 0.2 mm 4 mps 744 mmHg 92%
    19:00 -3°C° 0.2 mm 4 mps 745 mmHg 93%
    20:00 -3°C° 0.2 mm 4 mps 745 mmHg 93%
    21:00 -3°C° 0.1 mm 4 mps 745 mmHg 93%
    22:00 -2°C° 0.1 mm 3 mps 745 mmHg 93%
    23:00 -2°C° 0.1 mm 3 mps 746 mmHg 93%

    14 December, Friday

    Time Temperature Precipitation Wind Pressure Humidity
    00:00 -2°C° 0.1 mm 3 mps 746 mmHg 94%
    01:00 -2°C° 0.1 mm 3 mps 746 mmHg 94%
    02:00 -2°C° 0.1 mm 3 mps 746 mmHg 94%
    03:00 -2°C° 0.1 mm 3 mps 747 mmHg 94%
    04:00 -2°C° 0.1 mm 3 mps 747 mmHg 94%
    05:00 -2°C° 0.1 mm 3 mps 747 mmHg 95%
    06:00 -2°C° 0 mm 3 mps 748 mmHg 95%
    07:00 -2°C° 0 mm 2 mps 748 mmHg 95%
    08:00 -2°C° 0 mm 2 mps 748 mmHg 95%
    09:00 -2°C° 0 mm 2 mps 749 mmHg 94%
    10:00 -2°C° 0 mm 3 mps 749 mmHg 93%
    11:00 -2°C° 0 mm 3 mps 750 mmHg 92%
    12:00 -1°C° 0 mm 3 mps 750 mmHg 91%
    13:00 -1°C° 0 mm 3 mps 751 mmHg 90%
    14:00 -1°C° 0 mm 2 mps 751 mmHg 90%
    15:00 -1°C° 0 mm 2 mps 751 mmHg 90%
    16:00 -2°C° 0 mm 2 mps 752 mmHg 91%
    17:00 -2°C° 0 mm 2 mps 752 mmHg 92%
    18:00 -2°C° 0 mm 2 mps 752 mmHg 93%
    19:00 -3°C° 0 mm 2 mps 753 mmHg 94%
    20:00 -3°C° 0 mm 2 mps 753 mmHg 94%
    21:00 -1°C° 0 mm 1 mps 753 mmHg 94%
    22:00 -1°C° 0 mm 1 mps 754 mmHg 94%
    23:00 -1°C° 0 mm 1 mps 754 mmHg 95%

    15 December, Saturday

    Time Temperature Precipitation Wind Pressure Humidity
    00:00 -1°C° 0 mm 1 mps 754 mmHg 95%
    01:00 -1°C° 0 mm 1 mps 754 mmHg 95%
    02:00 -1°C° 0 mm 1 mps 755 mmHg 95%
    03:00 -2°C° 0 mm 1 mps 755 mmHg 95%
    04:00 -2°C° 0 mm 1 mps 755 mmHg 95%
    05:00 -3°C° 0 mm 1 mps 755 mmHg 96%
    06:00 -2°C° 0 mm 1 mps 755 mmHg 96%
    07:00 -2°C° 0 mm 1 mps 756 mmHg 96%
    08:00 -2°C° 0 mm 1 mps 756 mmHg 96%
    09:00 -2°C° 0 mm 1 mps 756 mmHg 94%
    10:00 -1°C° 0 mm 1 mps 757 mmHg 92%
    11:00 0°C° 0 mm 1 mps 757 mmHg 90%
    12:00 0°C° 0 mm 1 mps 757 mmHg 90%
    13:00 0°C° 0 mm 1 mps 757 mmHg 89%
    14:00 0°C° 0 mm 1 mps 757 mmHg 88%
    15:00 0°C° 0 mm 1 mps 757 mmHg 90%
    16:00 0°C° 0 mm 1 mps 757 mmHg 91%
    17:00 -3°C° 0 mm 2 mps 757 mmHg 93%
    18:00 -3°C° 0 mm 2 mps 757 mmHg 93%
    19:00 -3°C° 0 mm 2 mps 757 mmHg 94%
    20:00 -3°C° 0 mm 2 mps 757 mmHg 94%
    21:00 -3°C° 0 mm 2 mps 757 mmHg 94%
    22:00 -3°C° 0 mm 2 mps 758 mmHg 94%
    23:00 -3°C° 0 mm 2 mps 758 mmHg 93%
    Show more